Location: Beneden-Haastrecht
(52.0012°N, 4.7557°E)
Time: 10:43:37
(UTC+00:00)

X-37B - Pass Details

Date: 25 January 2021
Orbit: 383 x 391 km, 45.0° (Epoch: 27 February)

Event Time Altitude Azimuth Distance (km) Brightness Sun altitude
Rises 19:02:35 0° 258° (WSW) 2,276 5.7 -25.3°
Reaches altitude 10° 19:05:00 10° 241° (WSW) 1,421 4.2 -25.6°
Enters shadow 19:06:05 16° 225° (SW) 1,128 3.4 -25.8°
